This demonstration page uses our WeatherBlox Daily Observations layout. Learn more.

Left ArrowRight Arrow

Hourly Observations for November 18, 2020

Temp ( °F °C ) Dew Point ( °F °C ) Humidity (%) Winds ( mph kmh ) Pressure ( in mb ) Visibility ( mi km ) Precip ( " mm )
12:54 am 00:54 Clear 44 6.7 28 -2.2 53 53 SSE 12 19 30.16 1021 10 16.0934 0 0
1:54 am 01:54 Clear 42 5.6 28 -2.2 58 58 S 8 13 30.13 1020 10 16.0934 0 0
2:54 am 02:54 Clear 45 7.2 29 -1.7 54 54 S 13 20 30.09 1019 10 16.0934 0 0
3:54 am 03:54 Clear 44 6.7 29 -1.7 55 55 S 8 13 30.08 1019 10 16.0934 0 0
4:54 am 04:54 Clear 44 6.7 28 -2.2 53 53 S 7 11 30.07 1018 10 16.0934 0 0
5:54 am 05:54 Clear 45 7.2 29 -1.7 54 54 S 10 17 30.04 1017 10 16.0934 0 0
6:54 am 06:54 Clear 48 8.9 29 -1.7 48 48 S 14 22 30.01 1016 10 16.0934 0 0
7:54 am 07:54 Sunny 48 8.9 30 -1.1 50 50 S 13 20 30 1016 10 16.0934 0 0
8:54 am 08:54 Sunny 54 12.2 30 -1.1 40 40 S 18 30 29.99 1016 10 16.0934 0 0
9:54 am 09:54 Sunny 59 15 31 -0.6 35 35 SSW 22 35 29.97 1015 10 16.0934 0 0
10:54 am 10:54 Sunny 62 16.7 33 0.6 34 34 SSW 28 44 29.94 1014 10 16.0934 0 0
11:54 am 11:54 Sunny 65 18.3 34 1.1 32 32 SSW 22 35 29.92 1013 10 16.0934 0 0
12:54 pm 12:54 Sunny 67 19.4 34 1.1 30 30 SSW 21 33 29.89 1012 10 16.0934 0 0
1:54 pm 13:54 Sunny 68 20 35 1.7 30 30 SSW 18 30 29.86 1011 10 16.0934 0 0
2:54 pm 14:54 Sunny 70 21.1 35 1.7 28 28 SSW 20 31 29.85 1011 10 16.0934 0 0
3:54 pm 15:54 Sunny 69 20.6 36 2.2 30 30 SSW 18 30 29.85 1011 10 16.0934 0 0
4:54 pm 16:54 Sunny 66 18.9 37 2.8 34 34 SSW 13 20 29.84 1011 10 16.0934 0 0
5:54 pm 17:54 Clear 64 17.8 38 3.3 38 38 S 13 20 29.84 1011 10 16.0934 0 0
6:54 pm 18:54 Clear 66 18.9 38 3.3 36 36 S 21 33 29.83 1010 10 16.0934 0 0
7:54 pm 19:54 Clear 64 17.8 38 3.3 38 38 S 20 31 29.82 1010 10 16.0934 0 0
8:54 pm 20:54 Clear 64 17.8 40 4.4 41 41 S 23 37 29.81 1010 10 16.0934 0 0
9:54 pm 21:54 Clear 63 17.2 40 4.4 43 43 S 18 30 29.8 1009 10 16.0934 0 0
10:54 pm 22:54 Clear 62 16.7 38 3.3 41 41 S 16 26 29.8 1009 10 16.0934 0 0
11:54 pm 23:54 Clear 61 16.1 38 3.3 43 43 SSW 16 26 29.78 1009 10 16.0934 0 0

Powered by AerisWeather